sat.trackr.live / text

‹ back to catalog

TJS-2

NORAD 41911 · 2017-001A

PAYLOAD ACTIVE UNKNOWN

§ Identity

Operator
Country
PRC
Launch date
2017-01-05
Launch site
XICLF
Launch vehicle
Mass (kg)
RCS (m²)
43.79

Purposes: comms

External: N2YO · Heavens-Above · Gunter

§ Orbital elements

Epoch: 2026-05-25T02:20:53.342304Z

Period
1,436.12 min
Inclination
0.7758°
Eccentricity
0.0000521
Mean motion
1.00270294 rev/d
Perigee alt
35,784.8 km
Apogee alt
35,789.2 km
Semi-major
42,165.1 km
B*
0.0000e+0
RAAN
85.6077°
Arg perigee
336.4115°
Mean anomaly
282.4349°
Rev number
3,448

§ Raw data

TJS-21 41911U 17001A   26145.09783961 -.00000008  00000+0  00000+0 0  99932 41911   0.7758  85.6077 0000521 336.4115 282.4349  1.00270294 34485

JSON: /api/v1/satellites/41911 · /tle

For live sub-satellite position, see the globe view (requires WebGL).

§ Visibility from observer

Set your observer location to see the next 7 days of passes ≥ 10°. The values pass through the URL so the page stays shareable.

No JS? Fill the form by hand. The geolocation button needs JavaScript.